Orbital Elements
Epoch 2016 Sept. 9.0 TT = JDT 2457640.5
T 2016 Sept. 13.24892 TT Williams
q 4.9672220 (2000.0) P Q
z -0.0006684 Peri. 287.90526 +0.17535657 +0.98040505
+/-0.0000007 Node 350.69181 -0.55230790 +0.02249529
e 1.0033203 Incl. 33.70511 -0.81498838 +0.19570358
From 175 observations 2014 May 19-2019 Aug. 12, mean residual 0".6.
|